| time (UTC) | temp F | wind direction | speed MPH | gust MPH | rain 1hr in | rain 24hr in | rain mn in | humidity % | barometer mb |
| 20260905120544 | 54 | 94 | 2.0 | 3.0 | 0.00 | 0.00 | 0.00 | 82 | 1016.9 |
| 20260905120040 | 54 | 91 | 2.0 | 3.0 | 0.00 | 0.00 | 0.00 | 83 | 1016.9 |
| 20260905115538 | 54 | 98 | 1.0 | 2.0 | 0.00 | 0.00 | 0.00 | 83 | 1016.9 |
| 20260905115033 | 54 | 1 | 0.0 | 2.0 | 0.00 | 0.00 | 0.00 | 84 | 1016.9 |
| 20260905114533 | 53 | 7 | 2.0 | 2.0 | 0.00 | 0.00 | 0.00 | 85 | 1017.0 |
| 20260905114032 | 54 | 16 | 1.0 | 2.0 | 0.00 | 0.00 | 0.00 | 84 | 1017.0 |
| 20260905113527 | 54 | 41 | 1.0 | 2.0 | 0.00 | 0.00 | 0.00 | 83 | 1016.8 |
| 20260905113022 | 54 | 55 | 0.0 | 2.0 | 0.00 | 0.00 | 0.00 | 83 | 1017.0 |
| 20260905112517 | 55 | 104 | 2.0 | 2.0 | 0.00 | 0.00 | 0.00 | 82 | 1016.9 |
| 20260905112013 | 55 | 59 | 0.0 | 2.0 | 0.00 | 0.00 | 0.00 | 82 | 1016.8 |
| 20260905111507 | 55 | 134 | 0.0 | 2.0 | 0.00 | 0.00 | 0.00 | 81 | 1016.7 |
| 20260905111001 | 56 | 50 | 0.0 | 2.0 | 0.00 | 0.00 | 0.00 | 81 | 1016.9 |
| 20260905110500 | 55 | 10 | 0.0 | 2.0 | 0.00 | 0.00 | 0.00 | 81 | 1016.8 |
| 20260905105954 | 55 | 357 | 1.0 | 2.0 | 0.00 | 0.00 | 0.00 | 82 | 1016.9 |
| 20260905105449 | 55 | 157 | 0.0 | 1.0 | 0.00 | 0.00 | 0.00 | 82 | 1016.8 |
| 20260905104948 | 55 | 110 | 0.0 | 1.0 | 0.00 | 0.00 | 0.00 | 82 | 1016.9 |
| 20260905104444 | 55 | 157 | 0.0 | 0.0 | 0.00 | 0.00 | 0.00 | 82 | 1016.8 |
| 20260905103939 | 55 | 135 | 0.0 | 1.0 | 0.00 | 0.00 | 0.00 | 82 | 1016.9 |
| 20260905103435 | 55 | 38 | 2.0 | 2.0 | 0.00 | 0.00 | 0.00 | 82 | 1016.8 |
| 20260905102931 | 55 | 335 | 0.0 | 2.0 | 0.00 | 0.00 | 0.00 | 82 | 1016.8 |
| 20260905102427 | 55 | 356 | 2.0 | 2.0 | 0.00 | 0.00 | 0.00 | 82 | 1017.0 |
| 20260905101922 | 55 | 35 | 1.0 | 2.0 | 0.00 | 0.00 | 0.00 | 83 | 1016.9 |
| 20260905101420 | 55 | 14 | 2.0 | 3.0 | 0.00 | 0.00 | 0.00 | 82 | 1016.9 |
| 20260905100915 | 54 | 18 | 2.0 | 3.0 | 0.00 | 0.00 | 0.00 | 83 | 1016.7 |
| 20260905100411 | 54 | 43 | 2.0 | 3.0 | 0.00 | 0.00 | 0.00 | 84 | 1016.9 |
| 20260905095910 | 54 | 8 | 2.0 | 2.0 | 0.00 | 0.00 | 0.00 | 84 | 1016.8 |
| 20260905095404 | 54 | 15 | 2.0 | 2.0 | 0.00 | 0.00 | 0.00 | 84 | 1016.7 |
| 20260905094859 | 53 | 57 | 0.0 | 2.0 | 0.00 | 0.00 | 0.00 | 86 | 1016.7 |
| 20260905094354 | 54 | 95 | 1.0 | 2.0 | 0.00 | 0.00 | 0.00 | 85 | 1016.8 |
| 20260905093853 | 54 | 121 | 1.0 | 2.0 | 0.00 | 0.00 | 0.00 | 84 | 1017.0 |
| 20260905093349 | 55 | 58 | 0.0 | 2.0 | 0.00 | 0.00 | 0.00 | 84 | 1016.9 |
| 20260905092844 | 55 | 49 | 0.0 | 1.0 | 0.00 | 0.00 | 0.00 | 84 | 1017.0 |
| 20260905092339 | 54 | 53 | 1.0 | 2.0 | 0.00 | 0.00 | 0.00 | 85 | 1016.8 |
| 20260905091834 | 54 | 349 | 2.0 | 2.0 | 0.00 | 0.00 | 0.00 | 85 | 1016.9 |
| 20260905091333 | 53 | 325 | 0.0 | 2.0 | 0.00 | 0.00 | 0.00 | 86 | 1016.9 |
| 20260905090832 | 53 | 15 | 1.0 | 2.0 | 0.00 | 0.00 | 0.00 | 88 | 1016.7 |
| 20260905090329 | 53 | 97 | 2.0 | 2.0 | 0.00 | 0.00 | 0.00 | 88 | 1016.8 |
| 20260905085828 | 53 | 89 | 0.0 | 2.0 | 0.00 | 0.00 | 0.00 | 87 | 1016.8 |
| 20260905085322 | 53 | 57 | 2.0 | 2.0 | 0.00 | 0.00 | 0.00 | 88 | 1016.8 |
| 20260905084818 | 53 | 56 | 2.0 | 2.0 | 0.00 | 0.00 | 0.00 | 88 | 1016.5 |
| 20260905084317 | 53 | 32 | 2.0 | 2.0 | 0.00 | 0.00 | 0.00 | 87 | 1016.8 |
| 20260905083812 | 54 | 89 | 0.0 | 1.0 | 0.00 | 0.00 | 0.00 | 85 | 1016.7 |
| 20260905083308 | 55 | 36 | 3.0 | 3.0 | 0.00 | 0.00 | 0.00 | 83 | 1016.5 |
| 20260905082803 | 55 | 104 | 1.0 | 2.0 | 0.00 | 0.00 | 0.00 | 84 | 1016.7 |
| 20260905082259 | 55 | 339 | 0.0 | 1.0 | 0.00 | 0.00 | 0.00 | 83 | 1016.7 |
| 20260905081754 | 55 | 32 | 0.0 | 2.0 | 0.00 | 0.00 | 0.00 | 83 | 1016.8 |
| 20260905081249 | 55 | 44 | 0.0 | 2.0 | 0.00 | 0.00 | 0.00 | 83 | 1016.9 |
| 20260905080748 | 55 | 10 | 0.0 | 2.0 | 0.00 | 0.00 | 0.00 | 84 | 1016.7 |
| 20260905080243 | 54 | 50 | 0.0 | 1.0 | 0.00 | 0.00 | 0.00 | 85 | 1016.6 |
| 20260905075741 | 54 | 152 | 0.0 | 2.0 | 0.00 | 0.00 | 0.00 | 86 | 1016.7 |
| 20260905075241 | 54 | 141 | 0.0 | 2.0 | 0.00 | 0.00 | 0.00 | 86 | 1016.7 |
| 20260905074740 | 54 | 103 | 0.0 | 2.0 | 0.00 | 0.00 | 0.00 | 86 | 1017.0 |
| 20260905074236 | 54 | 109 | 1.0 | 2.0 | 0.00 | 0.00 | 0.00 | 87 | 1016.6 |
| 20260905073731 | 53 | 125 | 0.0 | 2.0 | 0.00 | 0.00 | 0.00 | 86 | 1016.5 |
| 20260905073226 | 54 | 89 | 0.0 | 1.0 | 0.00 | 0.00 | 0.00 | 85 | 1016.7 |
| 20260905072720 | 54 | 95 | 0.0 | 1.0 | 0.00 | 0.00 | 0.00 | 85 | 1016.7 |
| 20260905072216 | 54 | 48 | 0.0 | 2.0 | 0.00 | 0.00 | 0.00 | 84 | 1016.5 |
| 20260905071712 | 54 | 75 | 2.0 | 2.0 | 0.00 | 0.00 | 0.00 | 83 | 1016.5 |
| 20260905071208 | 55 | 113 | 0.0 | 1.0 | 0.00 | 0.00 | 0.00 | 82 | 1016.5 |
| 20260905070703 | 55 | 93 | 2.0 | 2.0 | 0.00 | 0.00 | 0.00 | 83 | 1016.7 |
| 20260905070159 | 55 | 36 | 2.0 | 2.0 | 0.00 | 0.00 | 0.00 | 83 | 1016.4 |
| 20260905065657 | 55 | 41 | 2.0 | 2.0 | 0.00 | 0.02 | 0.02 | 83 | 1016.5 |
| 20260905065151 | 55 | 26 | 2.0 | 2.0 | 0.00 | 0.02 | 0.02 | 83 | 1016.4 |
| 20260905064646 | 55 | 44 | 2.0 | 2.0 | 0.00 | 0.02 | 0.02 | 83 | 1016.5 |
| 20260905064137 | 55 | 49 | 2.0 | 2.0 | 0.00 | 0.02 | 0.02 | 82 | 1016.3 |
| 20260905063635 | 55 | 33 | 2.0 | 2.0 | 0.00 | 0.02 | 0.02 | 82 | 1016.3 |
| 20260905063132 | 55 | 54 | 2.0 | 2.0 | 0.00 | 0.02 | 0.02 | 81 | 1016.4 |
| 20260905062627 | 56 | 47 | 2.0 | 2.0 | 0.00 | 0.02 | 0.02 | 81 | 1016.3 |
| 20260905062126 | 55 | 47 | 1.0 | 2.0 | 0.00 | 0.02 | 0.02 | 81 | 1016.4 |
| 20260905061620 | 55 | 70 | 1.0 | 2.0 | 0.00 | 0.02 | 0.02 | 81 | 1016.4 |
| 20260905061115 | 55 | 58 | 2.0 | 2.0 | 0.00 | 0.02 | 0.02 | 81 | 1016.3 |
| 20260905060610 | 55 | 49 | 1.0 | 2.0 | 0.00 | 0.02 | 0.02 | 81 | 1016.3 |
| 20260905060106 | 55 | 66 | 0.0 | 1.0 | 0.00 | 0.02 | 0.02 | 82 | 1016.4 |
| 20260905055605 | 55 | 66 | 1.0 | 2.0 | 0.00 | 0.02 | 0.02 | 82 | 1016.3 |
| 20260905055059 | 55 | 47 | 2.0 | 3.0 | 0.00 | 0.02 | 0.02 | 82 | 1016.3 |
| 20260905054556 | 55 | 28 | 2.0 | 2.0 | 0.00 | 0.02 | 0.02 | 81 | 1016.4 |
| 20260905054050 | 56 | 26 | 2.0 | 3.0 | 0.00 | 0.02 | 0.02 | 80 | 1016.3 |
| 20260905053544 | 55 | 56 | 2.0 | 3.0 | 0.00 | 0.02 | 0.02 | 80 | 1016.3 |
| 20260905053040 | 56 | 100 | 2.0 | 3.0 | 0.00 | 0.02 | 0.02 | 80 | 1016.3 |
| 20260905052539 | 56 | 73 | 2.0 | 2.0 | 0.00 | 0.02 | 0.02 | 79 | 1016.4 |
| 20260905052034 | 55 | 49 | 3.0 | 3.0 | 0.00 | 0.02 | 0.02 | 80 | 1016.3 |
| 20260905051530 | 55 | 62 | 2.0 | 2.0 | 0.00 | 0.02 | 0.02 | 81 | 1016.3 |
| 20260905051026 | 55 | 45 | 1.0 | 2.0 | 0.00 | 0.02 | 0.02 | 81 | 1016.5 |
| 20260905050521 | 55 | 93 | 1.0 | 2.0 | 0.00 | 0.02 | 0.02 | 83 | 1016.3 |
| 20260905050013 | 55 | 115 | 3.0 | 3.0 | 0.00 | 0.02 | 0.02 | 83 | 1016.5 |
| 20260905045508 | 55 | 125 | 1.0 | 1.0 | 0.00 | 0.02 | 0.02 | 79 | 1016.4 |
| 20260905045003 | 56 | 130 | 2.0 | 2.0 | 0.00 | 0.02 | 0.02 | 78 | 1016.6 |
| 20260905044503 | 55 | 105 | 3.0 | 3.0 | 0.00 | 0.02 | 0.02 | 77 | 1016.5 |
| 20260905043957 | 55 | 105 | 2.0 | 2.0 | 0.00 | 0.02 | 0.02 | 76 | 1016.6 |
| 20260905043456 | 55 | 70 | 1.0 | 2.0 | 0.00 | 0.02 | 0.02 | 76 | 1016.4 |
| 20260905042951 | 55 | 93 | 1.0 | 2.0 | 0.00 | 0.02 | 0.02 | 77 | 1016.4 |
| 20260905042450 | 55 | 59 | 2.0 | 2.0 | 0.00 | 0.02 | 0.02 | 78 | 1016.4 |
| 20260905041945 | 55 | 13 | 1.0 | 2.0 | 0.00 | 0.02 | 0.02 | 78 | 1016.3 |
| 20260905041441 | 55 | 35 | 2.0 | 2.0 | 0.00 | 0.02 | 0.02 | 78 | 1016.5 |
| 20260905040936 | 55 | 39 | 2.0 | 2.0 | 0.00 | 0.02 | 0.02 | 79 | 1016.3 |
| 20260905040430 | 55 | 45 | 2.0 | 3.0 | 0.00 | 0.02 | 0.02 | 78 | 1016.3 |
| 20260905035930 | 55 | 40 | 2.0 | 2.0 | 0.00 | 0.02 | 0.02 | 78 | 1016.3 |
| 20260905035425 | 55 | 38 | 2.0 | 2.0 | 0.00 | 0.02 | 0.02 | 78 | 1016.5 |
| 20260905034922 | 55 | 34 | 2.0 | 3.0 | 0.00 | 0.02 | 0.02 | 78 | 1016.3 |
| 20260905034417 | 56 | 24 | 2.0 | 3.0 | 0.00 | 0.02 | 0.02 | 76 | 1016.2 |
| 20260905033916 | 56 | 24 | 2.0 | 3.0 | 0.00 | 0.02 | 0.02 | 75 | 1016.0 |
| 20260905033411 | 56 | 26 | 2.0 | 2.0 | 0.00 | 0.02 | 0.02 | 76 | 1016.2 |
| 20260905032911 | 57 | 43 | 2.0 | 2.0 | 0.00 | 0.02 | 0.02 | 75 | 1016.3 |
| 20260905032406 | 57 | 26 | 2.0 | 2.0 | 0.00 | 0.02 | 0.02 | 75 | 1016.0 |
| 20260905031901 | 57 | 25 | 2.0 | 2.0 | 0.00 | 0.02 | 0.02 | 75 | 1016.0 |
| 20260905031356 | 57 | 13 | 2.0 | 2.0 | 0.00 | 0.02 | 0.02 | 74 | 1016.2 |
| 20260905030851 | 57 | 23 | 2.0 | 2.0 | 0.00 | 0.02 | 0.02 | 75 | 1016.0 |
| 20260905030347 | 57 | 29 | 1.0 | 2.0 | 0.00 | 0.02 | 0.02 | 75 | 1016.3 |
| 20260905025846 | 57 | 347 | 1.0 | 2.0 | 0.00 | 0.02 | 0.02 | 71 | 1016.1 |
| 20260905025341 | 58 | 51 | 2.0 | 2.0 | 0.00 | 0.02 | 0.02 | 68 | 1016.1 |
| 20260905024838 | 58 | 102 | 1.0 | 2.0 | 0.00 | 0.02 | 0.02 | 68 | 1016.1 |
| 20260905024333 | 58 | 113 | 2.0 | 2.0 | 0.00 | 0.02 | 0.02 | 69 | 1015.8 |
| 20260905023823 | 59 | 101 | 2.0 | 2.0 | 0.00 | 0.02 | 0.02 | 70 | 1015.8 |
| 20260905023319 | 59 | 108 | 1.0 | 2.0 | 0.00 | 0.02 | 0.02 | 70 | 1016.0 |
| 20260905022817 | 59 | 108 | 1.0 | 2.0 | 0.00 | 0.02 | 0.02 | 66 | 1016.0 |
| 20260905022312 | 60 | 105 | 2.0 | 2.0 | 0.00 | 0.02 | 0.02 | 67 | 1016.0 |
| 20260905021807 | 60 | 99 | 2.0 | 2.0 | 0.00 | 0.02 | 0.02 | 67 | 1016.1 |
| 20260905021302 | 60 | 84 | 0.0 | 1.0 | 0.00 | 0.02 | 0.02 | 67 | 1016.1 |
| 20260905020801 | 60 | 133 | 0.0 | 1.0 | 0.00 | 0.02 | 0.02 | 69 | 1016.0 |
| 20260905020257 | 60 | 124 | 0.0 | 1.0 | 0.00 | 0.02 | 0.02 | 67 | 1016.0 |
| 20260905015750 | 61 | 224 | 0.0 | 0.0 | 0.00 | 0.02 | 0.02 | 67 | 1015.9 |
| 20260905015244 | 61 | 166 | 0.0 | 1.0 | 0.00 | 0.02 | 0.02 | 67 | 1016.0 |
| 20260905014743 | 61 | 116 | 0.0 | 1.0 | 0.00 | 0.02 | 0.02 | 65 | 1016.0 |
| 20260905014239 | 61 | 216 | 1.0 | 2.0 | 0.00 | 0.02 | 0.02 | 66 | 1015.8 |
| 20260905013734 | 61 | 166 | 0.0 | 1.0 | 0.00 | 0.02 | 0.02 | 65 | 1015.7 |
| 20260905013225 | 61 | 127 | 1.0 | 2.0 | 0.00 | 0.02 | 0.02 | 63 | 1015.8 |
| 20260905012720 | 62 | 65 | 1.0 | 2.0 | 0.00 | 0.02 | 0.02 | 63 | 1015.8 |
| 20260905012216 | 62 | 140 | 3.0 | 3.0 | 0.00 | 0.02 | 0.02 | 64 | 1015.5 |
| 20260905011712 | 63 | 189 | 1.0 | 2.0 | 0.00 | 0.02 | 0.02 | 62 | 1015.6 |
| 20260905011208 | 64 | 142 | 1.0 | 4.0 | 0.00 | 0.02 | 0.02 | 62 | 1015.4 |
| 20260905010707 | 65 | 129 | 2.0 | 3.0 | 0.00 | 0.02 | 0.02 | 57 | 1015.4 |
| 20260905010203 | 65 | 192 | 0.0 | 2.0 | 0.00 | 0.02 | 0.02 | 59 | 1015.4 |
| 20260905005659 | 65 | 168 | 3.0 | 4.0 | 0.00 | 0.02 | 0.02 | 61 | 1015.3 |
| 20260905005154 | 63 | 72 | 0.0 | 2.0 | 0.00 | 0.02 | 0.02 | 64 | 1015.4 |
| 20260905004649 | 63 | 6 | 3.0 | 3.0 | 0.00 | 0.02 | 0.02 | 66 | 1015.1 |
| 20260905004144 | 63 | 13 | 2.0 | 4.0 | 0.00 | 0.02 | 0.02 | 65 | 1015.2 |
| 20260905003639 | 63 | 8 | 1.0 | 3.0 | 0.00 | 0.02 | 0.02 | 65 | 1015.2 |
| 20260905003135 | 62 | 16 | 1.0 | 2.0 | 0.00 | 0.02 | 0.02 | 65 | 1015.0 |
| 20260905002630 | 62 | 74 | 2.0 | 4.0 | 0.00 | 0.02 | 0.02 | 64 | 1014.9 |
| 20260905002125 | 63 | 14 | 2.0 | 3.0 | 0.00 | 0.02 | 0.02 | 63 | 1015.0 |
| 20260905001621 | 64 | 10 | 4.0 | 4.0 | 0.00 | 0.02 | 0.02 | 62 | 1015.0 |
| 20260905001114 | 64 | 352 | 2.0 | 2.0 | 0.00 | 0.02 | 0.02 | 61 | 1014.8 |
| 20260905000609 | 64 | 347 | 1.0 | 3.0 | 0.00 | 0.02 | 0.02 | 61 | 1014.9 |
| 20260905000106 | 65 | 157 | 0.0 | 2.0 | 0.00 | 0.02 | 0.02 | 61 | 1014.7 |
| 20260904235559 | 66 | 344 | 2.0 | 3.0 | 0.00 | 0.02 | 0.02 | 59 | 1014.7 |
| 20260904235059 | 66 | 9 | 3.0 | 4.0 | 0.00 | 0.02 | 0.02 | 59 | 1014.7 |
| 20260904234554 | 67 | 354 | 1.0 | 4.0 | 0.00 | 0.02 | 0.02 | 57 | 1014.6 |
| 20260904234050 | 68 | 29 | 2.0 | 3.0 | 0.00 | 0.02 | 0.02 | 57 | 1014.8 |
| 20260904233545 | 68 | 130 | 0.0 | 3.0 | 0.00 | 0.02 | 0.02 | 55 | 1014.6 |
| 20260904233041 | 68 | 214 | 0.0 | 4.0 | 0.00 | 0.02 | 0.02 | 55 | 1014.4 |
| 20260904232538 | 67 | 37 | 3.0 | 4.0 | 0.00 | 0.02 | 0.02 | 57 | 1014.4 |
| 20260904232034 | 67 | 348 | 2.0 | 3.0 | 0.00 | 0.02 | 0.02 | 56 | 1014.3 |
| 20260904231529 | 66 | 13 | 2.0 | 5.0 | 0.00 | 0.02 | 0.02 | 57 | 1014.2 |
| 20260904231024 | 66 | 31 | 2.0 | 4.0 | 0.00 | 0.02 | 0.02 | 59 | 1014.4 |
| 20260904230523 | 66 | 327 | 2.0 | 3.0 | 0.00 | 0.02 | 0.02 | 58 | 1014.1 |
| 20260904230019 | 66 | 355 | 3.0 | 5.0 | 0.00 | 0.02 | 0.02 | 58 | 1014.2 |
| 20260904225516 | 65 | 10 | 3.0 | 4.0 | 0.00 | 0.02 | 0.02 | 61 | 1014.3 |
| 20260904225015 | 65 | 345 | 4.0 | 6.0 | 0.00 | 0.02 | 0.02 | 60 | 1014.2 |
| 20260904224511 | 65 | 15 | 2.0 | 6.0 | 0.00 | 0.02 | 0.02 | 60 | 1014.1 |
| 20260904224011 | 65 | 39 | 1.0 | 5.0 | 0.00 | 0.02 | 0.02 | 61 | 1014.0 |
| 20260904223510 | 65 | 353 | 4.0 | 5.0 | 0.00 | 0.02 | 0.02 | 62 | 1013.9 |
| 20260904223006 | 64 | 344 | 4.0 | 5.0 | 0.00 | 0.02 | 0.02 | 63 | 1014.0 |
| 20260904222501 | 65 | 358 | 4.0 | 6.0 | 0.00 | 0.02 | 0.02 | 63 | 1014.1 |
| 20260904221956 | 65 | 317 | 5.0 | 5.0 | 0.00 | 0.02 | 0.02 | 62 | 1014.0 |
| 20260904221450 | 66 | 203 | 1.0 | 5.0 | 0.00 | 0.02 | 0.02 | 61 | 1014.0 |
| 20260904220946 | 66 | 354 | 1.0 | 3.0 | 0.00 | 0.02 | 0.02 | 62 | 1014.0 |
| 20260904220445 | 65 | 72 | 0.0 | 4.0 | 0.00 | 0.02 | 0.02 | 64 | 1013.9 |
| 20260904215941 | 67 | 34 | 2.0 | 4.0 | 0.00 | 0.02 | 0.02 | 60 | 1014.1 |
| 20260904215436 | 66 | 162 | 0.0 | 3.0 | 0.00 | 0.02 | 0.02 | 66 | 1014.4 |
| 20260904214932 | 64 | 11 | 3.0 | 3.0 | 0.00 | 0.02 | 0.02 | 67 | 1014.3 |
| 20260904214427 | 63 | 48 | 2.0 | 4.0 | 0.00 | 0.02 | 0.02 | 67 | 1014.2 |
| 20260904213927 | 66 | 260 | 2.0 | 3.0 | 0.00 | 0.02 | 0.02 | 65 | 1014.4 |
| 20260904213421 | 64 | 180 | 0.0 | 2.0 | 0.00 | 0.02 | 0.02 | 69 | 1014.3 |
| 20260904212917 | 64 | 256 | 0.0 | 4.0 | 0.00 | 0.02 | 0.02 | 68 | 1014.4 |
| 20260904212416 | 65 | 156 | 3.0 | 3.0 | 0.00 | 0.02 | 0.02 | 67 | 1014.2 |
| 20260904211912 | 64 | 222 | 1.0 | 4.0 | 0.00 | 0.02 | 0.02 | 68 | 1014.1 |
| 20260904211407 | 65 | 189 | 0.0 | 3.0 | 0.00 | 0.02 | 0.02 | 66 | 1014.3 |
| 20260904210902 | 65 | 175 | 4.0 | 4.0 | 0.00 | 0.02 | 0.02 | 67 | 1014.2 |
| 20260904210401 | 65 | 243 | 0.0 | 2.0 | 0.00 | 0.02 | 0.02 | 65 | 1014.1 |
| 20260904205858 | 65 | 0 | 2.0 | 3.0 | 0.00 | 0.02 | 0.02 | 68 | 1013.9 |
| 20260904205353 | 64 | 32 | 0.0 | 3.0 | 0.00 | 0.02 | 0.02 | 68 | 1014.1 |
| 20260904204850 | 64 | 86 | 2.0 | 3.0 | 0.00 | 0.02 | 0.02 | 69 | 1014.1 |
| 20260904204345 | 64 | 1 | 2.0 | 2.0 | 0.00 | 0.02 | 0.02 | 69 | 1013.9 |
| 20260904203842 | 64 | 344 | 2.0 | 3.0 | 0.00 | 0.02 | 0.02 | 68 | 1014.0 |
| 20260904203338 | 64 | 337 | 3.0 | 6.0 | 0.00 | 0.02 | 0.02 | 67 | 1013.8 |
| 20260904202833 | 64 | 346 | 1.0 | 2.0 | 0.00 | 0.02 | 0.02 | 68 | 1013.9 |
| 20260904202329 | 64 | 0 | 2.0 | 2.0 | 0.00 | 0.02 | 0.02 | 68 | 1013.8 |
| 20260904201825 | 65 | 52 | 3.0 | 5.0 | 0.00 | 0.02 | 0.02 | 65 | 1013.7 |
| 20260904201325 | 63 | 172 | 0.0 | 2.0 | 0.00 | 0.02 | 0.02 | 70 | 1013.8 |
| 20260904200820 | 63 | 1 | 2.0 | 4.0 | 0.00 | 0.02 | 0.02 | 69 | 1013.8 |
| 20260904200319 | 64 | 225 | 0.0 | 4.0 | 0.00 | 0.02 | 0.02 | 68 | 1013.7 |
| 20260904195819 | 66 | 320 | 2.0 | 4.0 | 0.00 | 0.02 | 0.02 | 63 | 1014.0 |
| 20260904195317 | 66 | 39 | 2.0 | 3.0 | 0.00 | 0.02 | 0.02 | 65 | 1013.8 |
| 20260904194812 | 66 | 11 | 2.0 | 4.0 | 0.00 | 0.02 | 0.02 | 65 | 1013.7 |
| 20260904194311 | 66 | 38 | 2.0 | 6.0 | 0.00 | 0.02 | 0.02 | 64 | 1013.7 |
| 20260904193807 | 66 | 347 | 3.0 | 4.0 | 0.00 | 0.02 | 0.02 | 68 | 1013.9 |
| 20260904193302 | 65 | 190 | 2.0 | 4.0 | 0.00 | 0.02 | 0.02 | 67 | 1013.8 |
| 20260904192757 | 64 | 29 | 2.0 | 4.0 | 0.00 | 0.02 | 0.02 | 71 | 1013.9 |
| 20260904192252 | 66 | 308 | 1.0 | 3.0 | 0.00 | 0.02 | 0.02 | 68 | 1013.7 |
| 20260904191749 | 65 | 26 | 2.0 | 4.0 | 0.00 | 0.02 | 0.02 | 69 | 1013.8 |
| 20260904191245 | 65 | 151 | 2.0 | 3.0 | 0.00 | 0.02 | 0.02 | 70 | 1013.7 |
| 20260904190741 | 65 | 43 | 0.0 | 4.0 | 0.00 | 0.02 | 0.02 | 70 | 1013.8 |
| 20260904190237 | 65 | 145 | 3.0 | 4.0 | 0.00 | 0.02 | 0.02 | 69 | 1013.8 |
| 20260904185733 | 65 | 158 | 3.0 | 5.0 | 0.00 | 0.02 | 0.02 | 67 | 1013.6 |
| 20260904185228 | 65 | 54 | 2.0 | 4.0 | 0.00 | 0.02 | 0.02 | 70 | 1013.7 |
| 20260904184726 | 66 | 113 | 2.0 | 4.0 | 0.00 | 0.02 | 0.02 | 68 | 1013.6 |
| 20260904184223 | 66 | 37 | 1.0 | 2.0 | 0.00 | 0.02 | 0.02 | 71 | 1013.4 |
| 20260904183718 | 65 | 61 | 2.0 | 3.0 | 0.00 | 0.02 | 0.02 | 70 | 1013.5 |
| 20260904183213 | 64 | 167 | 3.0 | 5.0 | 0.00 | 0.02 | 0.02 | 73 | 1013.5 |
| 20260904182708 | 64 | 141 | 0.0 | 4.0 | 0.00 | 0.02 | 0.02 | 70 | 1013.5 |
| 20260904182208 | 65 | 177 | 2.0 | 4.0 | 0.00 | 0.02 | 0.02 | 73 | 1013.6 |
| 20260904181704 | 64 | 60 | 0.0 | 3.0 | 0.00 | 0.02 | 0.02 | 75 | 1013.6 |
| 20260904181203 | 64 | 29 | 2.0 | 3.0 | 0.00 | 0.02 | 0.02 | 71 | 1013.4 |
| 20260904180654 | 64 | 156 | 3.0 | 4.0 | 0.00 | 0.02 | 0.02 | 73 | 1013.7 |
| 20260904180149 | 64 | 81 | 1.0 | 2.0 | 0.00 | 0.02 | 0.02 | 74 | 1013.5 |
| 20260904175648 | 62 | 65 | 0.0 | 4.0 | 0.00 | 0.02 | 0.02 | 76 | 1013.5 |
| 20260904175147 | 63 | 66 | 1.0 | 4.0 | 0.00 | 0.02 | 0.02 | 76 | 1013.4 |
| 20260904174641 | 63 | 128 | 2.0 | 4.0 | 0.00 | 0.02 | 0.02 | 77 | 1013.4 |
| 20260904174137 | 62 | 165 | 1.0 | 2.0 | 0.00 | 0.02 | 0.02 | 80 | 1013.4 |
| 20260904173632 | 61 | 36 | 3.0 | 3.0 | 0.00 | 0.02 | 0.02 | 80 | 1013.5 |
| 20260904173123 | 61 | 33 | 2.0 | 5.0 | 0.00 | 0.02 | 0.02 | 80 | 1013.4 |
| 20260904172619 | 62 | 125 | 2.0 | 4.0 | 0.00 | 0.02 | 0.02 | 78 | 1013.6 |
| 20260904172118 | 61 | 116 | 4.0 | 4.0 | 0.00 | 0.02 | 0.02 | 81 | 1013.3 |
| 20260904171613 | 61 | 159 | 3.0 | 3.0 | 0.00 | 0.02 | 0.02 | 81 | 1013.5 |
| 20260904171109 | 61 | 167 | 2.0 | 3.0 | 0.00 | 0.02 | 0.02 | 79 | 1013.4 |
| 20260904170604 | 61 | 141 | 3.0 | 3.0 | 0.00 | 0.02 | 0.02 | 81 | 1013.5 |
| 20260904170100 | 59 | 126 | 2.0 | 3.0 | 0.00 | 0.02 | 0.02 | 87 | 1013.8 |
| 20260904165558 | 58 | 170 | 4.0 | 5.0 | 0.00 | 0.02 | 0.02 | 86 | 1013.6 |
| 20260904165053 | 58 | 119 | 4.0 | 4.0 | 0.00 | 0.02 | 0.02 | 93 | 1013.6 |
| 20260904164548 | 57 | 126 | 2.0 | 4.0 | 0.00 | 0.02 | 0.02 | 93 | 1013.6 |
| 20260904164043 | 56 | 174 | 2.0 | 4.0 | 0.00 | 0.02 | 0.02 | 93 | 1013.8 |
| 20260904163543 | 55 | 152 | 3.0 | 4.0 | 0.00 | 0.02 | 0.02 | 94 | 1013.7 |
| 20260904163038 | 55 | 141 | 2.0 | 3.0 | 0.00 | 0.02 | 0.02 | 96 | 1013.8 |
| 20260904162532 | 55 | 130 | 2.0 | 4.0 | 0.00 | 0.02 | 0.02 | 96 | 1013.4 |
| 20260904162028 | 54 | 111 | 3.0 | 3.0 | 0.00 | 0.02 | 0.02 | 98 | 1013.6 |
| 20260904161523 | 54 | 119 | 2.0 | 3.0 | 0.00 | 0.02 | 0.02 | 98 | 1013.7 |
| 20260904161018 | 54 | 109 | 3.0 | 3.0 | 0.00 | 0.02 | 0.02 | 98 | 1013.5 |
| 20260904160513 | 53 | 122 | 2.0 | 2.0 | 0.00 | 0.02 | 0.02 | 98 | 1013.6 |
| 20260904160009 | 53 | 136 | 2.0 | 2.0 | 0.00 | 0.02 | 0.02 | 98 | 1013.5 |
| 20260904155503 | 53 | 126 | 0.0 | 2.0 | 0.00 | 0.02 | 0.02 | 98 | 1013.5 |
| 20260904155003 | 53 | 145 | 2.0 | 3.0 | 0.00 | 0.02 | 0.02 | 98 | 1013.5 |
| 20260904154456 | 53 | 64 | 2.0 | 2.0 | 0.00 | 0.02 | 0.02 | 98 | 1013.3 |
| 20260904153951 | 53 | 42 | 0.0 | 1.0 | 0.00 | 0.02 | 0.02 | 98 | 1013.1 |
| 20260904153446 | 52 | 103 | 1.0 | 2.0 | 0.00 | 0.02 | 0.02 | 98 | 1013.0 |
| 20260904152943 | 52 | 69 | 2.0 | 2.0 | 0.00 | 0.02 | 0.02 | 97 | 1013.1 |
| 20260904152438 | 52 | 48 | 2.0 | 3.0 | 0.00 | 0.02 | 0.02 | 96 | 1013.0 |
| 20260904151938 | 52 | 46 | 4.0 | 5.0 | 0.00 | 0.02 | 0.02 | 96 | 1012.9 |
| 20260904151433 | 52 | 65 | 2.0 | 4.0 | 0.02 | 0.02 | 0.02 | 97 | 1012.8 |
| 20260904150933 | 52 | 94 | 0.0 | 4.0 | 0.00 | 0.02 | 0.02 | 97 | 1012.8 |
| 20260904150422 | 51 | 13 | 4.0 | 4.0 | 0.02 | 0.02 | 0.02 | 96 | 1012.8 |
| 20260904145920 | 51 | 331 | 3.0 | 3.0 | 0.05 | 0.02 | 0.02 | 96 | 1012.9 |
| 20260904145417 | 51 | 42 | 1.0 | 1.0 | 0.07 | 0.01 | 0.01 | 96 | 1012.8 |
| 20260904144912 | 52 | 124 | 2.0 | 3.0 | 0.05 | 0.01 | 0.01 | 93 | 1012.8 |
| 20260904144407 | 52 | 146 | 3.0 | 4.0 | 0.00 | 0.00 | 0.00 | 92 | 1012.7 |
| 20260904143903 | 53 | 128 | 2.0 | 4.0 | 0.00 | 0.00 | 0.00 | 90 | 1012.6 |
| 20260904143359 | 53 | 109 | 2.0 | 3.0 | 0.00 | 0.00 | 0.00 | 89 | 1012.7 |
| 20260904142855 | 53 | 53 | 2.0 | 3.0 | 0.00 | 0.00 | 0.00 | 89 | 1012.6 |
| 20260904142351 | 52 | 43 | 2.0 | 3.0 | 0.00 | 0.00 | 0.00 | 90 | 1012.5 |
| 20260904141850 | 52 | 122 | 0.0 | 2.0 | 0.00 | 0.00 | 0.00 | 91 | 1012.5 |
| 20260904141346 | 51 | 55 | 1.0 | 3.0 | 0.00 | 0.00 | 0.00 | 92 | 1012.4 |
| 20260904140843 | 51 | 21 | 2.0 | 2.0 | 0.00 | 0.00 | 0.00 | 92 | 1012.4 |
| 20260904140337 | 51 | 8 | 3.0 | 3.0 | 0.00 | 0.00 | 0.00 | 92 | 1012.4 |
| 20260904135836 | 51 | 10 | 2.0 | 3.0 | 0.00 | 0.00 | 0.00 | 92 | 1012.4 |
| 20260904135331 | 50 | 10 | 2.0 | 3.0 | 0.00 | 0.00 | 0.00 | 93 | 1012.3 |
| 20260904134828 | 50 | 335 | 2.0 | 3.0 | 0.00 | 0.00 | 0.00 | 93 | 1012.3 |
| 20260904134327 | 50 | 7 | 2.0 | 3.0 | 0.00 | 0.00 | 0.00 | 94 | 1012.4 |
| 20260904133821 | 50 | 350 | 2.0 | 2.0 | 0.00 | 0.00 | 0.00 | 94 | 1012.3 |
| 20260904133317 | 49 | 10 | 2.0 | 3.0 | 0.00 | 0.00 | 0.00 | 95 | 1012.3 |
| 20260904132817 | 49 | 12 | 2.0 | 3.0 | 0.00 | 0.00 | 0.00 | 95 | 1012.0 |
| 20260904132312 | 50 | 40 | 0.0 | 1.0 | 0.00 | 0.00 | 0.00 | 94 | 1012.0 |
| 20260904131811 | 50 | 140 | 0.0 | 2.0 | 0.00 | 0.00 | 0.00 | 93 | 1012.0 |
| 20260904131308 | 50 | 126 | 2.0 | 4.0 | 0.00 | 0.00 | 0.00 | 94 | 1011.9 |
| 20260904130807 | 51 | 139 | 2.0 | 6.0 | 0.00 | 0.00 | 0.00 | 93 | 1011.8 |
| 20260904130307 | 51 | 16 | 3.0 | 3.0 | 0.00 | 0.00 | 0.00 | 93 | 1011.9 |
| 20260904125803 | 51 | 91 | 0.0 | 2.0 | 0.00 | 0.00 | 0.00 | 92 | 1011.7 |
| 20260904125258 | 52 | 92 | 0.0 | 2.0 | 0.00 | 0.00 | 0.00 | 91 | 1011.9 |
| 20260904124752 | 52 | 110 | 3.0 | 4.0 | 0.00 | 0.00 | 0.00 | 90 | 1011.7 |
| 20260904124249 | 52 | 105 | 1.0 | 3.0 | 0.00 | 0.00 | 0.00 | 90 | 1011.7 |
| 20260904123749 | 52 | 60 | 2.0 | 2.0 | 0.00 | 0.00 | 0.00 | 89 | 1011.5 |
| 20260904123244 | 52 | 87 | 2.0 | 2.0 | 0.00 | 0.00 | 0.00 | 87 | 1011.4 |
| 20260904122740 | 53 | 96 | 1.0 | 4.0 | 0.00 | 0.00 | 0.00 | 87 | 1011.4 |
| 20260904122234 | 54 | 145 | 2.0 | 2.0 | 0.00 | 0.00 | 0.00 | 86 | 1011.5 |
| 20260904121730 | 54 | 13 | 1.0 | 2.0 | 0.00 | 0.00 | 0.00 | 86 | 1011.3 |
| 20260904121225 | 54 | 31 | 2.0 | 3.0 | 0.00 | 0.00 | 0.00 | 86 | 1011.3 |
| 20260904120722 | 53 | 14 | 4.0 | 4.0 | 0.00 | 0.00 | 0.00 | 86 | 1011.3 |